Location: Campavaglio
(41.1333°N, 9.2333°E)
Time: 09:27:13
(UTC+00:00)

Resurs 1-4 Rocket - Pass Details

Date: 07 June 2020
Orbit: 800 x 813 km, 98.6° (Epoch: 11 July)

Event Time Altitude Azimuth Distance (km) Brightness Sun altitude
Rises 01:35:11 0° 7° (N) 3,336 6.5 -19.0°
Reaches altitude 10° 01:37:36 10° 1° (N) 2,403 5.4 -18.8°
Maximum altitude 01:42:39 46° 290° (WNW) 1,075 2.6 -18.2°
Enters shadow 01:44:54 29° 236° (SW) 1,439 2.9 -18.0°
